Regional Weather Roundup
Issued by NWS

Home | Current Version | Previous Version | Text Only | Print | Product List | Glossary Off
Versions: 1 2 3 4 5 6 7 8 9 10 11 12 13 14 15 16 17 18 19 20 21 22 23 24 25 26 27 28 29 30 31 32 33 34 35 36 37 38 39 40 41 42 43 44 45 46 47 48 49 50

000
ASUS43 KDTX 260810
RWRMI
MICHIGAN HOURLY REGIONAL WEATHER ROUNDUP
NATIONAL WEATHER SERVICE DETROIT/PONTIAC MI
300 AM EST MON JAN 26 2015

NOTE: "FAIR" INDICATES FEW OR NO CLOUDS BELOW 12,000 FEET WITH NO
SIGNIFICANT WEATHER AND/OR OBSTRUCTION TO VISIBILITY.

MIZ047>049-052>055-059>063-066>070-074>076-081>083-260900-
SOUTHEAST LOWER MICHIGAN

CITY           SKY/WX    TMP DP  RH WIND       PRES   REMARKS
ADRIAN         CLEAR     15   8  73 NE8       29.93F WCI   4
ALMA           CLEAR      9   6  89 CALM      30.01S
ANN ARBOR      CLEAR     14   6  70 NE8       29.93F WCI   3
BAD AXE        FLURRIES  16  11  82 E5        29.99F WCI   9
CARO           FLURRIES  14   9  80 NE5       29.99S WCI   7
DETROIT CITY   MOCLDY    15   1  53 NE10      29.96F WCI   2
DETROIT        CLOUDY    15   2  56 N8        29.95F WCI   4
FLINT          PTCLDY    15   8  73 NE8       29.97F WCI   4
GROSSE ILE     MOCLDY    16   7  67 N13       29.94S WCI   2
HILLSDALE      CLEAR     13   9  81 N7        29.90S WCI   3
HOWELL         CLEAR     12   9  85 N5        29.94S WCI   4

CITY           SKY/WX    TMP DP  RH WIND       PRES   REMARKS
JACKSON        CLEAR     13   8  81 NE8       29.94S WCI   2
LAMBERTVILLE   PTCLDY    19   5  53 NE8       29.93S WCI   9
LANSING        CLOUDY    12   9  87 N5        29.98S WCI   4
LAPEER         FAIR      10   7  87 NE3       29.97S
MASON          CLEAR     13   9  83 NE7       29.95S WCI   2
MONROE         MOCLDY    16   5  62 NE9       29.92S WCI   4
MT. CLEMENS    MOCLDY    13   3  65 NE9       29.95F WCI   0
PONTIAC        PTCLDY    12   6  77 NE7       29.93F WCI   1
PORT HOPE        N/A     18  11  74 E15       30.00S WCI   4
PORT HURON     MOCLDY    10   3  72 NE7       29.98F WCI   0
TRI CITIES     CLOUDY    13   8  81 N6        30.01S WCI   4
TROY           PTCLDY    16   7  67 NE7       29.97F WCI   7
SAGINAW HB     CLEAR     14  10  85 E3        30.00F
$$
MIZ043>046-050>051-056>058-064>065-071>073-077>080-260900-
SOUTHWEST LOWER MICHIGAN

CITY           SKY/WX    TMP DP  RH WIND       PRES   REMARKS
BATTLE CREEK   CLEAR     15   8  73 NE7       29.95S WCI   5
BENTON HARBOR  CLEAR     14   8  77 E6        29.99R WCI   5
BIG RAPIDS     PTCLDY     5   2  88 CALM      29.99S
COLDWATER      CLEAR     13   8  81 NE7       29.93S WCI   3
FREMONT        FAIR       6   0  73 CALM      30.01R
HOLLAND        PTCLDY    14   8  77 CALM      30.00R
GRAND RAPIDS   CLEAR     12   7  80 NE7       29.98S WCI   1
IONIA          FAIR      12   9  86 NE6       29.98R WCI   3
KALAMAZOO      CLEAR     13   7  77 NE5       29.96S WCI   5
LUDINGTON      CLEAR      5   0  80 CALM      30.03F
MARSHALL       CLEAR     12   8  83 NE5       29.94S WCI   4
MOUNT PLEASANT CLEAR      4   1  85 CALM      30.00S
MUSKEGON       CLEAR     12   5  73 N3        30.02R
SOUTH HAVEN    PTCLDY    16  10  76 E5        29.98R WCI   9
$$
MIZ016>042-260900-
NORTHERN LOWER MICHIGAN

CITY           SKY/WX    TMP DP  RH WIND       PRES   REMARKS
ALPENA         MOCLDY    -5  -9  83 CALM      30.04S
BEAVER ISLAND  PTCLDY    -5  -9  85 CALM      30.04S
BELLAIRE       PTCLDY    -6 -10  81 CALM      30.05S
CADILLAC       PTCLDY    -5 -11  76 CALM      29.96S
CHARLEVOIX     CLEAR      1  -2  86 SE6       30.06F WCI -11
FRANKFORT      PTCLDY     6   2  82 CALM      30.04S
GAYLORD        MOCLDY    -6 -12  75 CALM      29.97S
GRAYLING       PTCLDY   -12 -17  78 CALM      30.00F
HARBOR SPRINGS MOCLDY    -5  -9  83 NE5       30.03S WCI -16
HOUGHTON LAKE  CLEAR     -4  -8  83 CALM      29.99R
MANISTEE       CLEAR      1  -2  85 E3        30.03S
OSCODA         FLURRIES  10   7  86 NW6       30.02R WCI   1
PELLSTON       MOCLDY   -15 -21  74 CALM      30.04F
ROGERS CITY    PTCLDY    -3  -6  88 CALM      30.06R
TRAVERSE CITY  PTCLDY     4   0  83 CALM      30.03S
$$
MIZ007>008-015-260900-
EASTERN UPPER MICHIGAN

CITY           SKY/WX    TMP DP  RH WIND       PRES   REMARKS
KINROSS        MOCLDY    -4  -6  92 E5        30.04S WCI -15
MACKINAC ISLAN MOCLDY     3  -1  83 S6        30.03S WCI  -8
NEWBERRY       PTCLDY    -6  -8  92 SE5       30.02S WCI -17
S. S. MARIE    PTCLDY    -4 -10  75 NE6       30.05S WCI -16
MUNISING         N/A      9   1  70 S8        30.00F WCI  -3
$$
MIZ004>006-011>014-085-260900-
CENTRAL UPPER MICHIGAN

CITY           SKY/WX    TMP DP  RH WIND       PRES   REMARKS
MANISTIQUE     MOCLDY     0  -3  87 E3        30.01F
ESCANABA       PTCLDY     0  -2  92 CALM      29.99F
MENOMINEE      PTCLDY     5   1  85 CALM      30.00F
SAWYER-GWINN   MOCLDY     3   0  85 S6        29.94F WCI  -8
$$
MIZ001>003-009>011-084-260900-
WESTERN UPPER MICHIGAN

CITY           SKY/WX    TMP DP  RH WIND       PRES   REMARKS
IRON MOUNTAIN  PTCLDY    -3  -7  82 CALM      29.94F
HOUGHTON       CLOUDY     9   4  80 S9        29.89F WCI  -4
COPPER HARBOR    N/A     17   9  70 VRB3      29.93F
IRONWOOD       CLOUDY    16   9  73 SW9       29.83F WCI   4
$$

ABBREVIATIONS USED IN REMARKS
   TC - TEMPERATURE IN CELSIUS
  WCI - WIND CHILL INDEX
   HX - HEAT INDEX
  VSB - VISIBILITY




USA.gov is the U.S. government's official web portal to all federal, state and local government web resources and services.